Location: Ladrillo (historical)
(32.8195°N, 117.2231°W)
Time: 02:54:58
(UTC+00:00)

CZ-4C R/B - Pass Details

Date: 26 May 2022
Orbit: 461 x 625 km, 98.1° (Epoch: 04 July)

Event Time Altitude Azimuth Distance (km) Brightness Sun altitude
Rises 12:12:31 0° 169° (S) 2,509 6.5 -6.6°
Reaches altitude 10° 12:14:31 10° 171° (S) 1,652 5.6 -6.2°
Maximum altitude 12:18:03 79° 258° (WSW) 509 3.1 -5.6°
Drops below altitude 10° 12:21:47 10° 345° (NNW) 1,743 6.1 -4.9°
Sets 12:23:57 0° 347° (NNW) 2,662 7.0 -4.5°
